Big Pine Key, Florida Weather Center

Moon Phase Calendar



Online Cameras

 


      

Current Conditions in Cudjoe Key
6/22/2021 2:41:21 AM

84°F
Feels Like 93
Clouds
Humidity
81%
Pressure
30.06"
Wind
10 mph (SE)
Dew Point
77°F
UV Index
0/10 (Low)
Visibility
6 mi

Hourly Forecast

Date & Time Tue, Jun 22
2:00 AM
Tue, Jun 22
3:00 AM
Tue, Jun 22
4:00 AM
Tue, Jun 22
5:00 AM
Tue, Jun 22
6:00 AM
Tue, Jun 22
7:00 AM
Tue, Jun 22
8:00 AM
Tue, Jun 22
9:00 AM
Tue, Jun 22
10:00 AM
Tue, Jun 22
11:00 AM
Tue, Jun 22
12:00 PM
Tue, Jun 22
1:00 PM
Tue, Jun 22
2:00 PM
Tue, Jun 22
3:00 PM
Tue, Jun 22
4:00 PM
Tue, Jun 22
5:00 PM
Tue, Jun 22
6:00 PM
Tue, Jun 22
7:00 PM
Tue, Jun 22
8:00 PM
Tue, Jun 22
9:00 PM
Tue, Jun 22
10:00 PM
Tue, Jun 22
11:00 PM
Wed, Jun 23
12:00 AM
Wed, Jun 23
1:00 AM
Wed, Jun 23
2:00 AM
Wed, Jun 23
3:00 AM
Wed, Jun 23
4:00 AM
Wed, Jun 23
5:00 AM
Wed, Jun 23
6:00 AM
Wed, Jun 23
7:00 AM
Wed, Jun 23
8:00 AM
Wed, Jun 23
9:00 AM
Wed, Jun 23
10:00 AM
Wed, Jun 23
11:00 AM
Wed, Jun 23
12:00 PM
Wed, Jun 23
1:00 PM
Wed, Jun 23
2:00 PM
Wed, Jun 23
3:00 PM
Wed, Jun 23
4:00 PM
Wed, Jun 23
5:00 PM
Wed, Jun 23
6:00 PM
Wed, Jun 23
7:00 PM
Wed, Jun 23
8:00 PM
Wed, Jun 23
9:00 PM
Wed, Jun 23
10:00 PM
Wed, Jun 23
11:00 PM
Thu, Jun 24
12:00 AM
Thu, Jun 24
1:00 AM
Condition
Clouds

Clouds

Clouds

Clouds

Clouds

Clouds

Clouds

Clouds

Clouds

Clouds

Clouds

Clouds

Clouds

Clouds

Clouds

Clouds

Clouds

Clouds

Clouds

Rain

Clouds

Clouds

Clouds

Clouds

Clouds

Clouds

Clouds

Clouds

Clouds

Clouds

Clouds

Clouds

Clouds

Clouds

Clouds

Clouds

Clouds

Rain

Rain

Rain

Clouds

Rain

Rain

Rain

Rain

Rain

Rain

Clouds
Temperature 84°F84°F84°F84°F84°F85°F85°F85°F85°F85°F85°F85°F85°F85°F85°F85°F85°F85°F85°F84°F85°F84°F84°F84°F85°F85°F85°F85°F85°F85°F85°F85°F85°F85°F85°F85°F85°F85°F85°F85°F85°F85°F83°F83°F79°F79°F79°F81°F
Feels Like 94°F93°F93°F94°F93°F94°F94°F94°F94°F94°F94°F94°F94°F94°F94°F93°F93°F93°F93°F93°F93°F92°F92°F92°F92°F92°F92°F92°F92°F92°F92°F92°F92°F93°F93°F92°F92°F92°F92°F92°F92°F92°F90°F90°F79°F80°F79°F86°F
Cloudiness 100%100%100%100%100%100%100%100%100%100%99%99%99%100%99%99%92%91%93%100%100%88%91%93%93%100%100%100%100%100%100%100%100%98%96%96%95%40%36%54%53%59%66%95%98%98%99%99%
Visibility 6 mi6 mi6 mi6 mi6 mi6 mi6 mi6 mi6 mi6 mi6 mi6 mi6 mi6 mi6 mi6 mi6 mi6 mi6 mi6 mi6 mi6 mi6 mi6 mi6 mi6 mi6 mi6 mi6 mi6 mi6 mi6 mi6 mi6 mi6 mi6 mi6 mi6 mi6 mi6 mi6 mi6 mi6 mi6 mi6 mi6 mi6 mi6 mi
Precipitation 23%10%1%1%1%1%1%0%0%0%3%3%17%35%31%23%4%7%9%38%48%70%83%76%80%18%12%9%5%1%1%0%0%0%0%13%36%49%57%54%59%68%77%100%100%100%100%80%
Humidity 79%81%79%79%76%76%75%74%74%74%74%74%73%73%73%73%73%73%73%73%74%72%72%72%70%69%68%67%67%67%68%69%69%70%70%70%69%70%71%71%71%72%74%74%81%82%78%72%
Dew Point 77°F77°F77°F77°F76°F76°F76°F76°F76°F76°F76°F76°F76°F75°F75°F75°F75°F75°F75°F75°F75°F75°F74°F74°F74°F73°F73°F73°F73°F73°F74°F74°F74°F74°F74°F74°F74°F74°F74°F74°F74°F74°F74°F74°F73°F72°F72°F71°F
Pressure 30.06"30.06"30.06"30.03"30.03"30"30.03"30.03"30.06"30.06"30.06"30.03"30.03"30.03"30.03"30"30"30"30"30.03"30.06"30.06"30.06"30.06"30.03"30.03"30"30"30"30"30.03"30.06"30.06"30.06"30.06"30.06"30.06"30.06"30.03"30.03"30"30.03"30.03"30.09"30.12"30.12"30.09"30.06"
Wind Speed 16.7 mph17.1 mph16.5 mph17.2 mph17.4 mph17.8 mph18.4 mph18.6 mph18 mph15.8 mph17 mph17.4 mph15.1 mph12.1 mph11 mph9.4 mph7.9 mph9.8 mph9.6 mph9.2 mph9.6 mph6.5 mph5.9 mph7.7 mph8.4 mph8.7 mph11.1 mph12.1 mph11.4 mph10.8 mph11.6 mph12.8 mph12.9 mph12.9 mph13.6 mph11 mph9.5 mph9.4 mph8.7 mph7.7 mph7.8 mph7.9 mph7.8 mph17.9 mph30 mph25.6 mph20.3 mph16.2 mph
Wind
Direction
125°
SE
131°
SE
132°
SE
132°
SE
134°
SE
137°
SE
140°
SE
142°
SE
144°
SE
148°
SSE
148°
SSE
148°
SSE
151°
SSE
155°
SSE
155°
SSE
153°
SSE
141°
SE
128°
SE
127°
SE
123°
ESE
134°
SE
120°
ESE
99°
E
94°
E
94°
E
94°
E
95°
E
97°
E
100°
E
109°
ESE
114°
ESE
115°
ESE
117°
ESE
121°
ESE
124°
SE
130°
SE
134°
SE
134°
SE
132°
SE
130°
SE
140°
SE
132°
SE
86°
E
45°
NE
40°
NE
52°
NE
56°
NE
64°
ENE

Daily Forecast

Date High Low Precip. Humidity
Today
Jun 22

Rain
85 °F
84 °F
70%
74%
Wednesday
Jun 23

Rain
85 °F
79 °F
100%
70%
Thursday
Jun 24

Rain
83 °F
80 °F
100%
74%
Friday
Jun 25

Rain
84 °F
83 °F
82%
69%
Saturday
Jun 26

Rain
84 °F
83 °F
83%
69%
Sunday
Jun 27

Rain
85 °F
83 °F
74%
71%
Monday
Jun 28

Rain
84 °F
84 °F
84%
73%
Tuesday
Jun 29

Rain
83 °F
80 °F
100%
68%
Wednesday
Jun 30

Rain
85 °F
81 °F
100%
71%
Thursday
Jul 1

Rain
85 °F
83 °F
100%
73%
Friday
Jul 2

Rain
86 °F
85 °F
95%
72%
Saturday
Jul 3

Rain
86 °F
84 °F
84%
71%
Sunday
Jul 4

Rain
86 °F
85 °F
100%
71%
Monday
Jul 5

Rain
85 °F
84 °F
82%
72%
Tuesday
Jul 6

Rain
85 °F
84 °F
100%
72%
Wednesday
Jul 7

Rain
85 °F
83 °F
100%
68%

Temperature 8-14 Day Outlook



Precipitation 8-14 Day Outlook




Quick Links
Big Pine Key, Florida News
Big Pine Key, Florida Photos
Big Pine Key, Florida Videos




About Us
Contact Us
Site Map
Search Site
Advertise With Us
   
BigPineKey.CoastalTown.com
THE BIG PINE KEY, FLORIDA WEBSITE

Copyright 2021, Coastal Town
Privacy    |    Legal